DW1806 Weather Reports


time (UTC)temp
C
wind
direction
speed
KPH
gust
KPH
rain 1hr
cm
rain 24hr
cm
rain mn
cm
humidity
%
barometer
mb
20260505041510 18 187 0.0 0.0 0.00 0.00 0.00 67 1000.4
20260505041010 18 238 0.0 0.0 0.00 0.00 0.00 66 1000.3
20260505040509 18 207 0.0 0.0 0.00 0.00 0.00 64 1000.2
20260505040008 18 196 0.0 0.0 0.00 0.00 0.00 64 1000.2
20260505035511 18 165 0.0 0.0 0.00 0.00 0.00 65 1000.4
20260505035012 17 188 0.0 0.0 0.00 0.00 0.00 66 1000.2
20260505034507 17 189 0.0 0.0 0.00 0.00 0.00 66 1000.1
20260505034007 17 177 0.0 0.0 0.00 0.00 0.00 67 999.9
20260505033508 17 173 0.0 0.0 0.00 0.00 0.00 66 1000.0
20260505033006 17 153 0.0 0.0 0.00 0.00 0.00 66 1000.1
20260505032505 17 185 0.0 0.0 0.00 0.00 0.00 65 1000.1
20260505032005 17 175 0.0 0.0 0.00 0.00 0.00 65 1000.3
20260505031504 17 180 0.0 0.0 0.00 0.00 0.00 64 1000.4
20260505031003 17 177 0.0 0.0 0.00 0.00 0.00 64 1000.4
20260505030503 16 183 0.0 0.0 0.00 0.00 0.00 64 1000.6
20260505030003 16 199 0.0 0.0 0.00 0.00 0.00 65 1000.6
20260505025503 16 182 0.0 0.0 0.00 0.00 0.00 64 1000.7
20260505025002 16 178 0.0 0.0 0.00 0.00 0.00 64 1000.6
20260505024505 16 184 0.0 0.0 0.00 0.00 0.00 65 1000.7
20260505024005 16 198 0.0 0.0 0.00 0.00 0.00 66 1000.7
20260505023502 16 190 0.0 0.0 0.00 0.00 0.00 66 1000.6
20260505023002 16 192 0.0 0.0 0.00 0.00 0.00 66 1000.6
20260505022502 16 157 0.0 0.0 0.00 0.00 0.00 66 1000.6
20260505022003 16 234 0.0 0.0 0.00 0.00 0.00 66 1000.5
20260505021502 16 178 0.0 0.0 0.00 0.00 0.00 64 1000.5
20260505021100 16 165 0.0 0.0 0.00 0.00 0.00 61 1000.9
20260505020602 16 212 0.0 0.0 0.00 0.00 0.00 59 1001.1
20260505020104 16 190 0.0 0.0 0.00 0.00 0.00 55 1001.3
20260505015600 16 190 0.0 0.0 0.00 0.00 0.00 55 1000.6
20260505015102 16 193 0.0 0.0 0.00 0.00 0.00 55 1000.6
20260505014607 16 193 0.0 0.0 0.00 0.00 0.00 55 1000.6
20260505014103 16 193 0.0 0.0 0.00 0.00 0.00 54 1000.6
20260505013559 16 193 0.0 0.0 0.00 0.00 0.00 54 1000.6
20260505013059 16 192 0.0 0.0 0.00 0.00 0.00 54 1000.6
20260505012559 15 146 0.0 0.0 0.00 0.00 0.00 55 1000.6
20260505012059 15 157 0.0 0.0 0.00 0.00 0.00 55 1000.7
20260505011600 16 202 0.0 0.0 0.00 0.00 0.00 55 1000.7
20260505011059 16 168 0.0 0.0 0.00 0.00 0.00 55 1000.7
20260505010601 16 174 0.0 0.0 0.00 0.00 0.00 54 1000.7
20260505010059 16 165 0.0 0.0 0.00 0.00 0.00 53 1000.7
20260505005557 16 165 0.0 0.0 0.00 0.00 0.00 52 1000.6
20260505005058 17 157 0.0 0.0 0.00 0.00 0.00 51 1000.5
20260505004558 17 156 0.0 0.0 0.00 0.00 0.00 50 1000.6
20260505004100 17 162 0.0 0.0 0.00 0.00 0.00 48 1000.7
20260505003555 18 158 0.0 0.0 0.00 0.00 0.00 46 1000.6
20260505003055 18 173 0.0 0.0 0.00 0.00 0.00 44 1000.7
20260505002558 19 186 0.0 0.0 0.00 0.00 0.00 43 1000.7
20260505002056 19 183 0.0 0.0 0.00 0.00 0.00 42 1000.7
20260505001555 20 175 0.0 0.0 0.00 0.00 0.00 41 1000.6
20260505001055 20 178 0.0 0.0 0.00 0.00 0.00 40 1000.7
20260505000554 20 229 0.0 0.0 0.00 0.00 0.00 40 1000.7
20260505000058 20 220 0.0 0.0 0.00 0.00 0.00 39 1000.7
20260504235555 21 227 0.0 0.0 0.00 0.00 0.00 39 1000.6
20260504235055 21 188 0.0 0.0 0.00 0.00 0.00 39 1000.7
20260504234555 21 287 0.0 0.0 0.00 0.00 0.00 39 1000.7
20260504234054 21 228 0.0 0.0 0.00 0.00 0.00 39 1000.7
20260504233553 21 239 0.0 0.0 0.00 0.00 0.00 39 1000.7
20260504233053 21 262 0.0 0.0 0.00 0.00 0.00 40 1000.7
20260504232554 21 218 0.0 0.0 0.00 0.00 0.00 39 1000.7
20260504232055 21 242 0.0 0.0 0.00 0.00 0.00 40 1000.8
20260504231556 21 235 0.0 0.0 0.00 0.00 0.00 40 1000.8
20260504231053 21 240 0.0 0.0 0.00 0.00 0.00 41 1000.9
20260504230553 21 273 0.0 0.0 0.00 0.00 0.00 41 1000.9
20260504230054 21 254 0.0 0.0 0.00 0.00 0.00 42 1000.8
20260504225553 21 261 0.0 0.0 0.00 0.00 0.00 42 1000.9
20260504225052 21 281 0.0 0.0 0.00 0.00 0.00 41 1000.8
20260504224552 21 219 0.0 0.0 0.00 0.00 0.00 41 1000.9
20260504224055 21 236 0.0 0.0 0.00 0.00 0.00 41 1000.8
20260504223554 21 236 0.0 0.0 0.00 0.00 0.00 41 1000.8
20260504223052 21 276 0.0 0.0 0.00 0.00 0.00 40 1000.8
20260504222553 21 274 0.0 0.0 0.00 0.00 0.00 40 1000.8
20260504222051 22 229 0.0 0.0 0.00 0.00 0.00 39 1000.9
20260504221553 22 172 0.0 0.0 0.00 0.00 0.00 38 1000.8
20260504221051 22 221 0.0 0.0 0.00 0.00 0.00 36 1000.8
20260504220551 22 201 0.0 0.0 0.00 0.00 0.00 36 1000.8
20260504220051 22 227 0.0 0.0 0.00 0.00 0.00 35 1000.8
20260504215554 22 239 0.0 0.0 0.00 0.00 0.00 35 1000.7
20260504215050 22 206 0.0 0.0 0.00 0.00 0.00 35 1000.8
20260504214557 22 232 0.0 0.0 0.00 0.00 0.00 35 1000.7
20260504214050 22 280 0.0 0.0 0.00 0.00 0.00 34 1000.7
20260504213549 23 222 0.0 0.0 0.00 0.00 0.00 35 1000.7
20260504213049 22 274 0.0 0.0 0.00 0.00 0.00 35 1000.7
20260504212548 22 222 0.0 0.0 0.00 0.00 0.00 34 1000.7
20260504212049 22 159 0.0 0.0 0.00 0.00 0.00 37 1000.7
20260504211546 22 216 0.0 0.0 0.00 0.00 0.00 39 1000.7
20260504211045 22 193 0.0 0.0 0.00 0.00 0.00 40 1000.7
20260504210544 21 221 0.0 0.0 0.00 0.00 0.00 42 1000.8
20260504210056 21 271 0.0 0.0 0.00 0.00 0.00 42 1001.0
20260504205543 21 163 0.0 0.0 0.00 0.00 0.00 40 1001.1
20260504205043 21 204 0.0 0.0 0.00 0.00 0.00 41 1001.2
20260504204557 21 213 0.0 0.0 0.00 0.00 0.00 41 1001.2
20260504204042 21 216 0.0 0.0 0.00 0.00 0.00 41 1001.3
20260504203541 21 255 0.0 0.0 0.00 0.00 0.00 42 1001.3
20260504203044 21 217 0.0 0.0 0.00 0.00 0.00 42 1001.3
20260504202541 21 252 0.0 0.0 0.00 0.00 0.00 42 1001.4
20260504202039 22 204 0.0 0.0 0.00 0.00 0.00 42 1001.5
20260504201540 22 225 0.0 0.0 0.00 0.00 0.00 43 1001.4
20260504201039 21 221 0.0 0.0 0.00 0.00 0.00 44 1001.5
20260504200538 21 197 0.0 0.0 0.00 0.00 0.00 43 1001.5
20260504200038 21 178 0.0 0.0 0.00 0.00 0.00 42 1001.7
20260504195537 22 222 0.0 0.0 0.00 0.00 0.00 43 1001.8
20260504195038 22 221 0.0 0.0 0.00 0.00 0.00 43 1001.8
20260504194536 21 173 0.0 0.0 0.00 0.00 0.00 43 1001.8
20260504194036 21 177 0.0 0.0 0.00 0.00 0.00 43 1001.9
20260504193535 21 257 0.0 0.0 0.00 0.00 0.00 43 1002.0
20260504193034 21 205 0.0 0.0 0.00 0.00 0.00 43 1002.1
20260504192533 21 190 0.0 0.0 0.00 0.00 0.00 45 1002.2
20260504192032 21 269 0.0 0.0 0.00 0.00 0.00 44 1002.2
20260504191532 21 239 0.0 0.0 0.00 0.00 0.00 45 1002.3
20260504191034 21 217 0.0 0.0 0.00 0.00 0.00 45 1002.4
20260504190531 21 191 0.0 0.0 0.00 0.00 0.00 45 1002.4
20260504190030 21 191 0.0 0.0 0.00 0.00 0.00 45 1002.5
20260504185530 21 183 0.0 0.0 0.00 0.00 0.00 44 1002.6
20260504185032 21 240 0.0 0.0 0.00 0.00 0.00 43 1002.5
20260504184529 21 227 0.0 0.0 0.00 0.00 0.00 45 1002.6
20260504184027 21 201 0.0 0.0 0.00 0.00 0.00 45 1002.6
20260504183526 20 218 0.0 0.0 0.00 0.00 0.00 45 1002.7
20260504183025 20 236 0.0 0.0 0.00 0.00 0.00 46 1002.8
20260504182525 20 237 0.0 0.0 0.00 0.00 0.00 46 1002.9
20260504182023 20 181 0.0 0.0 0.00 0.00 0.00 47 1002.9
20260504181523 20 225 0.0 0.0 0.00 0.00 0.00 47 1003.0
20260504181024 20 194 0.0 0.0 0.00 0.00 0.00 48 1003.1
20260504180522 20 194 0.0 0.0 0.00 0.00 0.00 47 1003.2
20260504180021 20 223 0.0 0.0 0.00 0.00 0.00 47 1003.3
20260504175520 20 242 0.0 0.0 0.00 0.00 0.00 49 1003.4
20260504175020 20 279 0.0 0.0 0.00 0.00 0.00 48 1003.5
20260504174518 20 198 0.0 0.0 0.00 0.00 0.00 49 1003.6
20260504174017 19 167 0.0 0.0 0.00 0.00 0.00 49 1003.6
20260504173516 19 175 0.0 0.0 0.00 0.00 0.00 49 1003.7
20260504173015 19 196 0.0 0.0 0.00 0.00 0.00 49 1003.7
20260504172515 19 188 0.0 0.0 0.00 0.00 0.00 50 1003.7
20260504172014 19 265 0.0 0.0 0.00 0.00 0.00 50 1003.7
20260504171514 18 191 0.0 0.0 0.00 0.00 0.00 51 1003.7
20260504171018 18 215 0.0 0.0 0.00 0.00 0.00 51 1003.7
20260504170514 18 192 0.0 0.0 0.00 0.00 0.00 50 1003.7
20260504151059 16 212 0.0 0.0 0.00 0.00 0.00 53 1004.7
20260504150559 16 238 0.0 0.0 0.00 0.00 0.00 52 1004.8
20260504141054 16 229 0.0 0.0 0.00 0.00 0.00 52 1004.6
20260504140553 16 232 0.0 0.0 0.00 0.00 0.00 53 1004.7
20260504130546 14 217 0.0 0.0 0.00 0.00 0.00 53 1004.9
20260504110527 10 189 0.0 0.0 0.00 0.00 0.00 61 1005.3
20260504100525 10 231 0.0 0.0 0.00 0.00 0.00 59 1005.0
20260504081517 10 215 0.0 0.0 0.00 0.00 0.00 60 1006.1
20260504081016 10 217 0.0 0.0 0.00 0.00 0.00 62 1006.1
20260504080516 10 187 0.0 0.0 0.00 0.00 0.00 64 1006.2
20260504050556 11 258 0.0 0.0 0.00 0.00 0.00 66 1007.6
20260504045554 11 144 0.0 0.0 0.00 0.00 0.00 63 1007.7
20260504045054 11 219 0.0 0.0 0.00 0.00 0.00 62 1007.8
20260504044556 11 213 0.0 0.0 0.00 0.00 0.00 61 1007.8
20260504044053 11 234 0.0 0.0 0.00 0.00 0.00 62 1007.8
20260504043552 10 225 0.0 0.0 0.00 0.00 0.00 62 1007.9
20260504043056 10 320 0.0 0.0 0.00 0.00 0.00 63 1007.9
20260504042551 10 178 0.0 0.0 0.00 0.00 0.00 63 1007.9
20260504042050 10 249 0.0 0.0 0.00 0.00 0.00 62 1007.9